Wind_Speed
39 41 45 44 45 41 40 40 42 44 47 50 54 58 61 64 65 67 69 69 69 69 69 69 68 66 63 60 54 51 53 52 44 40 44 49 54 65 77 71 68 62 64
41 48 44 40 33 32 36 39 42 47 52 56 61 64 66 66 64 60 56 52 51 51 50 52 51 48 47 47 44 45 46 48 40 41 41 45 54 60 75 74 69 58 70
39 33 30 29 32 35 40 44 49 53 56 59 58 56 54 53 52 49 46 43 42 41 38 35 34 35 36 38 39 40 41 40 40 40 40 41 44 52 58 73 87 51 69
31 26 29 32 35 40 44 46 46 46 46 47 47 45 42 41 39 37 35 34 31 30 30 25 25 26 25 28 33 34 36 33 37 37 38 39 41 46 51 61 66 66 55
25 26 31 34 37 37 34 35 36 35 35 32 31 34 31 28 26 23 22 21 20 20 20 20 20 20 21 21 22 27 24 28 34 33 34 38 39 45 53 57 61 69 43
30 30 32 32 26 21 17 22 22 22 22 22 23 25 26 24 21 18 16 15 17 16 15 15 15 16 18 19 19 18 19 20 32 34 34 34 37 42 49 62 64 64 66
29 31 26 17 11 9 17 24 28 26 23 22 23 23 23 21 19 18 17 17 17 16 16 15 14 15 15 18 22 21 14 15 19 27 37 37 39 40 42 48 50 51 54
28 20 13 6 3 8 15 20 24 27 29 30 28 26 24 23 21 20 19 18 17 16 15 15 14 14 17 19 22 23 23 17 12 18 22 28 39 43 46 48 51 51 49
15 11 5 4 2 8 13 17 19 21 22 23 24 24 25 25 25 25 26 26 25 25 24 22 21 20 18 16 17 19 22 22 20 17 15 23 26 31 36 43 48 54 57
11 7 6 3 3 6 10 13 16 17 18 19 20 21 22 23 23 24 24 23 23 23 23 22 22 22 22 23 24 25 24 23 24 23 24 24 22 27 31 35 42 48 52
7 6 5 6 4 6 8 11 12 13 14 16 17 18 19 21 22 23 24 24 24 24 23 23 22 22 20 19 19 18 18 19 21 22 21 22 25 28 28 33 39 43 45
6 7 7 8 7 8 9 9 11 13 14 16 17 19 20 21 22 22 23 24 24 25 26 26 27 26 26 26 26 25 24 24 22 21 21 21 23 24 21 26 34 37 40
7 8 9 10 9 10 11 13 15 16 17 18 18 20 22 23 24 26 26 27 28 29 30 30 31 31 32 32 33 33 33 32 31 31 29 28 26 26 26 26 27 25 31
9 9 10 11 12 13 15 17 18 19 19 19 20 22 23 25 27 28 29 30 31 32 33 34 35 36 36 36 37 38 38 38 39 39 39 37 35 34 33 32 31 30 31
11 12 13 14 15 17 19 20 20 21 22 23 25 27 29 31 31 32 33 35 36 35 33 33 35 38 40 41 42 42 43 44 44 45 45 46 46 45 42 40 38 37 35
14 15 16 17 19 20 22 23 24 25 27 28 30 33 34 34 37 38 40 40 38 37 36 38 41 44 46 47 48 50 51 51 52 52 52 50 50 51 52 50 47 45 43
18 19 19 21 23 24 25 26 28 30 32 34 36 39 41 40 42 43 44 44 42 41 40 43 46 48 51 53 54 55 55 56 56 55 54 53 50 52 54 55 55 53 52
21 22 24 24 26 27 29 30 33 35 36 38 39 40 43 45 45 44 44 46 45 44 45 47 48 49 51 53 55 55 54 54 53 51 50 50 48 48 48 51 53 55 56
25 26 28 29 30 32 34 36 38 39 41 42 42 43 44 45 46 46 46 47 46 46 48 49 50 50 52 54 55 54 54 53 52 50 49 48 47 47 47 47 47 50 52
29 31 33 34 35 37 39 41 42 44 44 45 46 46 47 47 48 50 50 50 50 51 51 50 50 51 53 55 54 54 54 53 51 50 49 48 47 47 47 47 47 47 48
33 34 36 38 39 40 41 42 44 45 46 47 48 49 49 51 52 52 53 54 53 53 52 53 52 54 56 56 56 56 56 54 53 52 51 50 48 48 47 47 48 49 49
37 37 38 40 41 43 44 45 46 47 48 49 50 52 53 54 54 55 56 56 55 55 55 56 57 58 58 59 58 58 58 57 56 55 54 54 54 53 53 54 54 55 55
39 40 40 41 42 44 44 46 47 49 50 51 53 55 55 56 57 57 57 56 56 57 58 59 60 61 62 62 61 61 61 60 59 58 58 59 60 60 61 61 62 61 61
39 41 41 43 44 46 47 48 49 50 52 54 55 56 58 58 57 57 57 57 58 59 61 63 63 64 65 63 64 64 64 64 64 64 64 64 65 66 66 65 65 65 64
39 41 42 44 46 47 49 50 52 54 55 56 56 56 55 55 56 57 58 59 60 63 64 65 66 66 66 66 67 67 67 68 68 69 69 69 68 66 65 62 60 58 58
43 44 46 47 49 50 51 51 52 52 52 52 53 53 55 56 57 58 59 61 62 64 66 68 68 67 68 69 70 70 71 70 70 69 67 65 64 63 60 60 60 59 58
Wind_Direction
287 291 296 291 288 285 285 285 285 285 286 288 288 287 287 286 285 284 284 283 284 283 282 280 278 276 275 274 273 274 278 275 266 246 246 238 236 234 224 217 223 225 230
293 294 291 291 290 290 290 291 292 292 290 289 289 288 288 288 288 288 288 288 288 287 286 281 278 276 272 267 268 271 271 273 253 249 244 238 236 237 230 219 218 222 236
291 287 288 293 294 295 294 292 293 294 293 293 292 293 292 293 293 291 289 290 291 287 287 283 280 278 273 272 272 273 275 266 249 250 243 238 237 234 235 232 231 234 237
285 287 293 294 296 296 300 302 301 299 296 295 296 299 304 304 301 297 294 292 289 290 287 284 279 275 275 278 283 286 279 260 247 249 239 236 236 234 231 232 233 228 233
290 291 294 296 303 309 310 308 304 302 304 308 315 319 322 322 319 314 307 302 300 294 287 284 280 276 275 277 299 296 285 259 246 245 243 239 238 234 231 223 226 227 245
297 299 304 309 312 319 341 351 340 334 335 338 343 348 344 339 334 329 321 313 308 305 299 295 298 292 281 290 310 314 293 273 250 247 244 244 240 237 237 232 232 242 248
301 305 308 310 321 15 27 31 31 25 17 14 13 11 11 7 358 347 336 326 322 320 318 313 304 306 305 302 305 320 319 287 268 254 247 244 242 240 240 243 244 247 250
305 302 305 301 344 14 29 33 36 38 38 39 38 35 31 30 31 30 28 25 21 16 10 2 347 322 311 302 299 305 313 317 299 265 260 252 245 243 239 243 251 249 248
296 297 273 225 351 18 23 30 33 33 33 33 34 36 36 36 38 39 40 40 39 39 39 36 33 29 17 356 337 312 301 307 310 310 276 256 257 253 250 248 249 252 251
291 262 221 228 323 2 13 19 19 20 20 20 20 20 21 22 22 22 22 22 22 24 21 19 21 22 21 17 12 9 6 353 348 321 305 305 282 263 260 251 253 257 260
261 236 230 254 292 334 351 359 0 359 1 1 2 3 6 6 6 5 4 2 0 359 357 357 357 356 355 354 354 352 351 350 348 347 345 327 307 298 279 266 260 257 256
255 245 255 262 282 306 320 325 331 333 337 338 340 344 348 349 349 348 347 344 343 342 341 339 338 336 334 333 332 329 328 328 328 328 327 327 328 326 317 286 272 269 268
257 258 264 269 285 297 306 311 315 318 323 326 330 333 333 333 333 333 332 331 330 329 327 324 323 322 320 318 316 314 313 313 312 311 309 308 307 308 309 309 310 306 278
257 265 272 280 289 295 301 305 309 312 317 320 323 325 325 325 325 324 324 324 323 321 319 318 317 315 311 309 307 306 306 304 302 301 299 297 296 294 294 293 292 293 296
264 271 278 284 289 294 298 302 305 310 314 317 319 321 322 323 322 322 322 321 319 318 318 320 322 322 320 316 312 310 308 306 303 299 295 292 291 289 286 284 282 282 281
268 271 276 282 287 292 296 300 304 308 311 314 317 317 318 321 320 320 320 320 320 319 319 319 319 319 319 317 316 315 313 310 306 303 299 293 286 281 280 280 278 277 275
277 279 283 287 291 294 296 299 304 308 311 313 316 318 317 319 319 319 319 318 319 317 316 318 320 320 320 320 320 319 316 313 309 305 301 295 287 280 276 272 272 272 273
278 280 282 286 289 292 295 298 301 304 307 310 314 315 314 315 316 316 316 315 315 314 315 316 316 317 317 319 319 317 315 313 310 307 302 298 294 290 285 278 273 270 269
280 281 283 286 288 291 295 298 301 304 307 309 311 311 310 310 310 311 313 313 313 312 312 312 313 314 315 316 316 313 312 311 308 304 302 299 297 294 291 289 283 277 272
283 285 288 290 292 295 298 301 303 305 307 308 308 307 307 308 308 309 310 310 311 310 310 310 309 310 312 313 312 311 311 309 306 304 302 300 298 295 292 290 287 283 280
286 287 289 292 295 296 298 300 301 302 303 304 304 305 306 306 307 308 308 309 309 309 309 308 307 309 310 311 311 312 311 309 307 305 303 301 299 297 295 291 288 285 282
287 289 289 291 294 296 297 299 299 300 301 302 302 303 304 305 306 306 308 309 308 307 307 307 307 308 309 311 311 311 311 309 307 305 304 302 301 299 297 293 291 288 284
286 288 290 291 293 294 295 296 297 298 298 299 301 301 302 302 304 306 307 307 307 307 307 307 308 309 310 310 310 310 310 309 307 305 304 304 303 301 299 297 294 291 287
286 288 290 291 291 293 293 294 296 297 297 298 299 301 303 305 306 306 306 307 307 307 308 309 309 310 311 310 310 310 309 308 308 307 306 304 303 301 299 297 294 291 288
289 289 289 290 291 292 293 294 295 297 299 302 303 304 303 304 305 306 306 307 307 308 310 310 310 310 310 310 309 310 310 309 308 307 306 304 301 299 297 295 292 290 288
288 289 289 290 291 292 295 297 299 301 300 301 302 303 303 304 304 305 306 307 309 310 310 310 311 310 310 311 310 310 309 309 308 306 304 303 302 300 299 296 294 291 289
Height
5628 5625 5622 5619 5617 5614 5610 5607 5605 5601 5598 5594 5589 5584 5578 5573 5567 5562 5557 5552 5547 5543 5541 5539 5537 5536 5536 5537 5537 5536 5534 5535 5539 5542 5543 5542 5543 5544 5548 5561 5574 5583 5589
5616 5614 5611 5608 5606 5604 5600 5598 5594 5590 5585 5579 5573 5567 5560 5553 5547 5542 5538 5534 5529 5525 5522 5520 5519 5518 5518 5520 5521 5521 5520 5520 5522 5525 5526 5530 5531 5539 5543 5549 5557 5570 5569
5608 5605 5603 5601 5599 5596 5592 5588 5583 5577 5570 5564 5556 5548 5542 5536 5531 5526 5522 5520 5517 5514 5512 5510 5508 5507 5508 5509 5508 5508 5506 5505 5507 5510 5513 5517 5520 5525 5530 5538 5545 5554 5558
5599 5598 5596 5594 5591 5587 5582 5576 5570 5563 5556 5549 5542 5535 5528 5523 5518 5514 5511 5509 5507 5505 5503 5501 5500 5501 5501 5501 5499 5495 5492 5492 5495 5498 5502 5506 5509 5514 5518 5526 5535 5542 5548
5593 5591 5590 5587 5583 5579 5573 5566 5559 5552 5545 5539 5532 5526 5520 5514 5509 5506 5504 5502 5500 5499 5497 5495 5494 5494 5494 5494 5491 5485 5483 5483 5486 5489 5491 5496 5500 5504 5508 5513 5523 5530 5530
5587 5585 5583 5579 5576 5573 5568 5560 5552 5546 5538 5532 5527 5521 5516 5512 5508 5505 5502 5500 5498 5495 5493 5491 5489 5488 5488 5487 5485 5481 5478 5477 5478 5481 5483 5487 5491 5494 5498 5505 5514 5519 5521
5581 5579 5575 5573 5572 5569 5564 5558 5551 5543 5536 5531 5526 5521 5517 5512 5508 5505 5502 5499 5496 5494 5491 5489 5487 5485 5483 5482 5480 5477 5475 5473 5473 5474 5477 5480 5482 5485 5487 5491 5498 5503 5506
5574 5571 5570 5569 5568 5566 5561 5555 5549 5544 5540 5535 5530 5525 5520 5516 5511 5507 5503 5500 5496 5493 5490 5487 5484 5482 5480 5479 5477 5474 5472 5470 5469 5469 5470 5471 5474 5477 5480 5482 5481 5487 5492
5568 5567 5566 5566 5565 5562 5558 5553 5549 5545 5542 5538 5534 5529 5525 5520 5516 5511 5506 5503 5499 5495 5492 5488 5485 5481 5478 5475 5473 5470 5467 5465 5464 5463 5462 5464 5465 5467 5469 5471 5472 5474 5475
5563 5563 5563 5563 5562 5559 5556 5552 5549 5546 5543 5540 5536 5532 5527 5522 5518 5514 5510 5506 5502 5498 5494 5491 5487 5483 5480 5477 5473 5469 5465 5461 5458 5456 5456 5454 5454 5455 5457 5458 5461 5461 5460
5561 5561 5560 5560 5558 5556 5554 5551 5549 5546 5543 5540 5536 5532 5528 5523 5519 5514 5510 5506 5502 5498 5495 5492 5488 5485 5481 5479 5475 5471 5467 5464 5460 5455 5452 5449 5447 5446 5447 5447 5447 5448 5449
5558 5558 5557 5557 5555 5553 5551 5549 5547 5544 5541 5538 5534 5530 5526 5522 5518 5514 5510 5505 5501 5497 5493 5489 5485 5482 5478 5474 5470 5467 5465 5461 5458 5454 5451 5448 5445 5441 5438 5437 5436 5434 5434
5556 5555 5554 5553 5552 5550 5548 5546 5544 5541 5538 5535 5531 5527 5523 5519 5515 5510 5506 5502 5497 5493 5489 5485 5481 5477 5473 5469 5465 5462 5459 5455 5452 5448 5446 5443 5441 5437 5432 5429 5426 5424 5422
5552 5551 5551 5550 5548 5546 5544 5543 5540 5537 5534 5531 5527 5524 5519 5515 5510 5505 5501 5496 5492 5488 5483 5479 5475 5471 5467 5463 5459 5455 5450 5446 5442 5439 5435 5432 5430 5428 5426 5423 5420 5416 5413
5548 5548 5547 5545 5543 5541 5539 5537 5535 5532 5529 5526 5522 5518 5513 5509 5505 5501 5496 5491 5486 5481 5476 5472 5467 5462 5457 5453 5448 5444 5439 5435 5431 5428 5424 5420 5417 5414 5412 5411 5409 5406 5404
5544 5543 5541 5540 5538 5536 5534 5532 5529 5526 5523 5519 5516 5512 5508 5503 5498 5493 5488 5483 5478 5473 5468 5463 5458 5453 5448 5443 5437 5431 5426 5422 5417 5412 5408 5405 5402 5400 5396 5394 5392 5391 5389
5540 5538 5536 5535 5533 5530 5528 5525 5522 5519 5516 5512 5508 5503 5496 5494 5489 5483 5477 5472 5468 5463 5458 5453 5447 5441 5435 5430 5424 5418 5412 5406 5400 5395 5390 5386 5382 5379 5377 5375 5374 5373 5371
5534 5532 5530 5528 5526 5523 5521 5518 5516 5513 5509 5505 5501 5496 5489 5483 5479 5474 5469 5462 5457 5452 5447 5441 5436 5430 5424 5417 5411 5404 5397 5390 5384 5379 5373 5368 5364 5360 5357 5354 5352 5352 5351
5528 5525 5523 5521 5518 5516 5513 5510 5507 5504 5500 5495 5491 5486 5480 5475 5469 5464 5459 5453 5446 5441 5435 5429 5422 5416 5410 5403 5397 5390 5383 5376 5370 5364 5359 5353 5349 5344 5340 5337 5334 5331 5331
5521 5519 5516 5514 5512 5509 5505 5502 5498 5494 5489 5484 5480 5474 5469 5464 5458 5452 5447 5440 5434 5427 5421 5415 5409 5402 5395 5389 5382 5375 5368 5361 5355 5348 5343 5338 5333 5329 5324 5321 5317 5315 5312
5513 5511 5509 5505 5502 5499 5495 5491 5487 5482 5478 5473 5467 5462 5456 5451 5445 5439 5433 5427 5420 5414 5408 5401 5395 5388 5381 5374 5367 5359 5352 5346 5339 5333 5327 5321 5317 5312 5307 5303 5300 5296 5294
5504 5501 5499 5495 5492 5488 5484 5480 5475 5470 5465 5460 5454 5449 5443 5438 5432 5426 5420 5414 5407 5400 5393 5386 5380 5373 5366 5358 5351 5343 5335 5329 5322 5316 5309 5303 5298 5293 5289 5284 5281 5277 5274
5494 5491 5488 5485 5480 5476 5472 5467 5463 5458 5452 5447 5442 5436 5430 5424 5418 5412 5405 5398 5392 5385 5378 5371 5364 5356 5349 5341 5333 5325 5318 5311 5304 5297 5291 5284 5278 5272 5267 5262 5257 5254 5250
5482 5479 5476 5472 5468 5464 5460 5455 5450 5445 5439 5434 5428 5422 5416 5409 5403 5396 5390 5383 5376 5369 5361 5354 5346 5339 5331 5323 5315 5306 5298 5291 5283 5276 5269 5263 5256 5249 5243 5238 5232 5227 5224
5471 5467 5463 5459 5455 5450 5446 5441 5436 5430 5425 5419 5414 5408 5401 5395 5388 5381 5374 5367 5359 5352 5344 5336 5328 5320 5312 5304 5295 5287 5278 5269 5261 5253 5244 5237 5230 5224 5218 5212 5207 5202 5197
5458 5454 5450 5446 5441 5437 5432 5427 5421 5416 5410 5404 5398 5392 5386 5379 5372 5365 5357 5350 5343 5335 5326 5318 5309 5300 5292 5283 5274 5265 5256 5247 5238 5229 5220 5212 5203 5197 5193 5188 5183 5178 5174